Location: Borgo
(42.3939°N, 9.2791°E)
Time: 21:58:21
(UTC+00:00)

Cosmos-2242 - Pass Details

Date: 24 January 2021
Orbit: 591 x 616 km, 82.5° (Epoch: 02 March)

Event Time Altitude Azimuth Distance (km) Brightness Sun altitude
Rises 17:51:42 0° 0° (N) 2,846 6.3 -15.7°
Reaches altitude 10° 17:54:04 10° 10° (N) 1,942 5.4 -16.1°
Maximum altitude 17:58:00 34° 76° (ENE) 990 3.5 -16.8°
Enters shadow 17:59:07 29° 108° (ESE) 1,099 3.8 -17.0°
Exits shadow 18:03:33 - 150° (SSE) 2,554 6.0 -17.8°
Sets 18:04:18 0° 152° (SSE) 2,844 6.3 -18.0°
